INTELSAT 28 (IS-28)

Last updated on Wed Oct 15 2025 00:02:46 GMT+0000 (Coordinated Universal Time)

1 37392U 11016A 25287.05204387 -.00000238 00000+0 00000+0 0 9998 2 37392 1.1663 85.7608 0004297 127.9125 156.2272 1.00270424 50815
UTC large
Height (km)
Speed (km/s)
/
Latitude / Longitude
Inclination (degrees)
Orbital Period (minutes)
Azimuth
Elevation
Range (km)
Doppler Factor

Next 0 passes for location: London (51.5072 / 0.1276)

Sorry there are no passes over London.